[Iaude] MPEC D02: 2024 CW6 [a=0.94,e=0.10,i=1.1,H=27.6]

mpec at cfa.harvard.edu mpec at cfa.harvard.edu
Fri Feb 16 04:07:59 EST 2024


M.P.E.C. 2024-D02                             Issued 2024 February 16, 09:06 UT

     The Minor Planet Electronic Circulars contain information on unusual
         minor planets, routine data on comets and natural satellites,
         and occasional editorial announcements.  They are published
    on behalf of Division F of the International Astronomical Union by the
          Minor Planet Center, Smithsonian Astrophysical Observatory,
                          Cambridge, MA 02138, U.S.A.
			  
             Prepared using the Tamkin Foundation Computer Network

                              MPC at CFA.HARVARD.EDU
            URL https://www.minorplanetcenter.net/    ISSN 1523-6714

                                    2024 CW6                                    


Observations:
     K24C06W* C2024 02 14.46136510 26 13.513+00 36 02.96         21.65wXED002F51
     K24C06W  C2024 02 14.47406510 26 08.474+00 36 33.16         21.29wXED002F51
     K24C06W  C2024 02 14.48685810 26 03.452+00 37 03.13         21.09wXED002F51
     K24C06W  C2024 02 14.50114910 25 57.825+00 37 36.87         21.85wXED002F51
     K24C06W  C2024 02 14.64214110 25 04.611+00 43 10.74         20.71GVED002F51
     K24C06W  C2024 02 14.64279310 25 04.386+00 43 12.93         21.03GVED002F51
     K24C06W pC2024 02 14.99092810 23 27.62 +00 55 57.6          20.8 GVED002L01
     K24C06W KC2024 02 14.99261510 23 27.01 +00 56 01.6          21.4 GVED002L01
     K24C06W KC2024 02 14.99430310 23 26.39 +00 56 06.0          21.6 GVED002L01
     K24C06W KC2024 02 14.99855110 23 24.68 +00 56 16.7          21.4 GVED002L01
     K24C06W KC2024 02 16.34528610 15 53.964+01 55 13.58         21.58GVED002I52
     K24C06W KC2024 02 16.34868110 15 52.517+01 55 23.02         21.23GVED002I52
     K24C06W KC2024 02 16.35801010 15 48.449+01 55 48.68         20.85GVED002I52
     K24C06W KC2024 02 16.36141510 15 46.976+01 55 57.97         20.57GVED002I52

Observer details:
F51 Pan-STARRS 1, Haleakala.  Observers J. Herman, T. Lowe, P. Minguez, A.
    Schultz, I. Smith.  Measurers K. Chambers, T. de Boer, J. Fairlamb, H.
    Gao, M. Huber, C.-C. Lin, E. Magnier, Y. Ramanjooloo, R. Wainscoat, R.
    Weryk.  1.8-m Ritchey-Chretien + CCD.
I52 Steward Observatory, Mt. Lemmon Station.  Observer J. B. Fazekas.
    Measurers E. C. Beshore, D. Fay, J. B. Fazekas, D. C. Fuls, A. R. Gibbs,
    A. D. Grauer, H. Groeller, J. K. Hogan, R. A. Kowalski, S. M. Larson, G.
    J. Leonard, D. Rankin, R. L. Seaman, F. C. Shelly, K. W. Wierzchos.  1.0-m
    prime focus + CCD.
L01 Visnjan Observatory, Tican.  Observer K. Korlevic.  1.0-m f/2.9 reflector
    + CCD.

Orbital elements:
2024 CW6                                                 Earth MOID = 0.0030 AU
Epoch 2024 Mar. 31.0 TT = JDT 2460400.5                 MPC                     
M 259.77620              (2000.0)            P               Q                  
n   1.07683425     Peri.  136.82830     +0.49872358     +0.86674412             
a   0.9426927      Node   163.08500     -0.80022538     +0.46283527             
e   0.1001632      Incl.    1.06822     -0.33303773     +0.18584441             
P   0.92           H   27.65          G   0.15           U   7                  
Residuals in seconds of arc
240214 F51  0.1+  0.2-    240214 F51  0.1-  0.2+    240216 I52  0.2-  0.2-
240214 F51  0.3-  0.1+    240214 L01  0.4-  0.0     240216 I52  0.2+  0.1-
240214 F51  0.0   0.1-    240214 L01  0.2+  0.2-    240216 I52  0.1-  0.1+
240214 F51  0.1+  0.1-    240214 L01  0.7+  0.1+    240216 I52  0.0   0.1+
240214 F51  0.2-  0.4-    240214 L01  0.4-  0.3+

Ephemeris:
2024 CW6                 a,e,i = 0.94, 0.10, 1                   q = 0.8483
Date    TT    R. A. (2000) Decl.     Delta      r    Elong.  Phase     V
2024 01 17    11 16 53.1 -04 44 35   0.08805 1.0351   123.6    52.3    24.4
...
2024 02 01    11 08 02.2 -04 18 51   0.06069 1.0329   140.6    37.2    23.1
...
2024 02 09    10 49 03.2 -02 13 04   0.04742 1.0291   153.4    25.4    22.3
...
2024 02 15    10 23 24.8 +00 58 56   0.03878 1.0252   165.5    14.0    21.4
2024 02 16    10 17 54.8 +01 41 39   0.03750 1.0244   167.6    12.0    21.3
2024 02 17    10 12 01.0 +02 27 48   0.03626 1.0236   169.6    10.1    21.1
...
2024 02 23    09 27 14.5 +08 20 08   0.03003 1.0184   166.4    13.2    20.8
...
2024 03 02    08 00 14.9 +18 36 09   0.02575 1.0100   136.8    42.2    21.4
...
2024 03 17    04 59 24.3 +29 43 51   0.03078 0.9903    80.3    97.9    23.6

A. U. Tomatic                (C) Copyright 2024 MPC           M.P.E.C. 2024-D02





More information about the Iaude mailing list